Starlink 2731

operational
NORAD ID: 48651 Int'l Des: 2021-044 Owner: SPXS Country: US Constellation: starlink
LEOCIRCULARSTARLINK_TYPE

Starlink 2731について

説明を読み込み中...

リアルタイム位置

3D地球を読み込み中...

次回通過

高度履歴

Altitude vs Time

uPlot chart will show altitude changes over time

軌道要素

1 48651U 21044P 25258.53114787 .00000114 00000-0 26566-4 0 9998
2 48651 53.0539 187.9350 0001223 92.5142 267.5987 15.06396315237303
Epoch: Sep 15, 2025 • Age: 13 hours

現在のステータス

高度 549.1 km
速度 7.59 km/s
衛星直下点 -5.30°S, 164.47°E
打ち上げ日 May 26, 2021
運用期間 4.3 years
タイプ internet

技術仕様

分類 Payload
質量 260.00 kg
乾燥質量 248.00 kg
総質量 260.00 kg
長さ 0.20 m
直径 2.80 m
スパン 9.00 m
形状 Box + pan
製造者 SPXS
バスタイプ Starlink
フェーズステータス In Orbit
所有者/国 SPXS/US

大規模コンステレーション

Loading constellations...